{"data":{"norad_id":61517,"intl_designator":"2024-183J","name":"STARLINK-31756","alt_names":[],"object_type":"PAYLOAD","status":"ACTIVE","operator":null,"country":"US","launch_date":"2024-10-15","launch_site_code":"AFETR","launch_vehicle":null,"mission":null,"orbit_class":"UNKNOWN","rcs_meters":null,"size_class":null,"mass_kg":null,"dimensions":null,"purposes":["comms"],"wikipedia_slug":null,"has_3d_model":false,"image_url":null,"decayed_at":null,"tle_current":{"epoch":"2026-09-21T16:49:10.529184Z","epoch_age_seconds":88419,"freshness":"FRESH","line1":"1 61517U 24183J   26264.70081631 -.00010492  00000+0 -29944-3 0  9992","line2":"2 61517  53.1600 309.7472 0000808  69.9967 290.1122 15.34439740109693","mean_motion":15.3443974,"eccentricity":8.08e-5,"inclination_deg":53.16,"raan_deg":309.7472,"arg_perigee_deg":69.9967,"mean_anomaly_deg":290.1122,"bstar":-0.00029944,"rev_number":10969,"period_min":93.845327546066,"perigee_km":462.03239675362,"apogee_km":463.13785744936,"semimajor_km":6840.7221271015,"source":"CELESTRAK","updated_at":"2026-09-22T09:00:49.356277Z"}}}